EW6571 Weather Reports


Display with metric or nautical units.
time (UTC)temp
F
wind
direction
speed
MPH
gust
MPH
rain 1hr
in
rain 24hr
in
rain mn
in
humidity
%
barometer
mb
20260831210025 78 254 2.0 11.0 0.00 0.00 0.00 26 1009.9
20260831204521 77 98 2.0 8.0 0.00 0.00 0.00 28 1010.1
20260831203017 76 190 2.0 5.0 0.00 0.00 0.00 28 1010.2
20260831201522 76 242 5.0 15.0 0.00 0.00 0.00 30 1010.5
20260831200019 76 11 5.0 9.0 0.00 0.00 0.00 31 1010.8
20260831194509 74 348 4.0 10.0 0.00 0.00 0.00 30 1011.0
20260831193010 74 300 3.0 5.0 0.00 0.00 0.00 30 1011.3
20260831191503 73 330 1.0 6.0 0.00 0.00 0.00 32 1011.4
20260831190105 71 244 1.0 7.0 0.00 0.00 0.00 39 1011.7
20260831184559 70 292 2.0 4.0 0.00 0.00 0.00 43 1012.0
20260831183051 68 301 3.0 6.0 0.00 0.00 0.00 45 1012.3
20260831181550 67 303 2.0 5.0 0.00 0.00 0.00 47 1012.7
20260831180042 65 296 1.0 5.0 0.00 0.00 0.00 51 1013.1
20260831174543 64 298 2.0 5.0 0.00 0.00 0.00 52 1013.3
20260831173036 62 298 1.0 4.0 0.00 0.00 0.00 56 1013.4
20260831171535 61 298 1.0 5.0 0.00 0.00 0.00 58 1013.4
20260831170028 59 304 0.0 4.0 0.00 0.00 0.00 59 1013.4
20260831164523 58 263 1.0 4.0 0.00 0.00 0.00 60 1013.6
20260831163028 57 263 1.0 4.0 0.00 0.00 0.00 61 1013.7
20260831161516 55 263 1.0 4.0 0.00 0.00 0.00 64 1013.7
20260831160012 53 262 1.0 6.0 0.00 0.00 0.00 64 1013.8
20260831154508 51 243 0.0 3.0 0.00 0.00 0.00 65 1013.9
20260831153006 49 243 0.0 3.0 0.00 0.00 0.00 72 1014.0
20260831151604 48 243 1.0 4.0 0.00 0.00 0.00 77 1014.1
20260831150057 47 243 2.0 5.0 0.00 0.00 0.00 74 1014.2
20260831144626 46 205 0.0 0.0 0.00 0.15 0.00 74 1014.2
20260831143051 46 204 0.0 0.0 0.00 0.15 0.00 75 1014.1
20260831141548 45 204 0.0 0.0 0.00 0.15 0.00 79 1014.1
20260831140045 43 204 0.0 0.0 0.00 0.15 0.00 82 1014.1
20260831134545 41 204 0.0 0.0 0.00 0.16 0.00 83 1014.1
20260831133048 40 204 0.0 0.0 0.00 0.16 0.00 82 1014.0
20260831131541 39 204 0.0 2.0 0.00 0.16 0.00 80 1014.0
20260831130041 39 204 0.0 2.0 0.00 0.16 0.00 81 1013.9
20260831124539 38 204 1.0 2.0 0.00 0.16 0.00 82 1013.6
20260831123037 39 204 1.0 3.0 0.00 0.16 0.00 79 1013.3
20260831121543 39 204 2.0 3.0 0.00 0.16 0.00 81 1013.3
20260831120038 39 204 0.0 1.0 0.00 0.16 0.00 82 1013.3
20260831114547 39 204 2.0 4.0 0.00 0.16 0.00 81 1013.2
20260831113027 40 203 0.0 2.0 0.00 0.16 0.00 79 1012.9
20260831111524 41 203 2.0 3.0 0.00 0.16 0.00 76 1012.9
20260831110023 42 203 2.0 5.0 0.00 0.16 0.00 75 1012.7
20260831104531 41 203 1.0 3.0 0.00 0.16 0.00 77 1012.8
20260831103020 41 203 1.0 4.0 0.00 0.16 0.00 74 1012.8
20260831101516 42 203 4.0 5.0 0.00 0.16 0.00 73 1012.7
20260831100014 42 203 0.0 0.0 0.00 0.16 0.00 73 1012.5
20260831094512 42 203 0.0 3.0 0.00 0.16 0.00 75 1012.3
20260831093018 42 203 0.0 2.0 0.00 0.16 0.00 75 1012.2
20260831091509 43 203 2.0 4.0 0.00 0.16 0.00 75 1012.1
20260831090009 43 203 2.0 3.0 0.00 0.16 0.00 74 1012.2
20260831084505 43 203 0.0 4.0 0.00 0.16 0.00 73 1012.2
20260831083005 44 203 2.0 4.0 0.00 0.16 0.00 74 1012.1
20260831081505 44 203 1.0 5.0 0.00 0.16 0.00 74 1012.1
20260831080002 44 203 2.0 4.0 0.00 0.16 0.00 74 1012.2
20260831074607 44 203 1.0 4.0 0.00 0.16 0.00 73 1012.1
20260831073101 45 203 1.0 4.0 0.00 0.16 0.00 73 1012.0
20260831071608 44 203 2.0 5.0 0.00 0.16 0.00 73 1011.9
20260831070056 45 203 1.0 6.0 0.00 0.16 0.00 70 1011.7
20260831064554 46 203 2.0 5.0 0.00 0.20 0.00 70 1011.5
20260831063053 45 203 1.0 3.0 0.00 0.20 0.00 70 1011.4
20260831061550 46 203 2.0 6.0 0.00 0.20 0.00 70 1011.3
20260831060058 44 298 2.0 4.0 0.00 0.20 0.00 72 1011.3
20260831054542 46 234 3.0 7.0 0.00 0.20 0.20 68 1011.1
20260831053038 46 214 1.0 4.0 0.00 0.20 0.20 66 1011.0
20260831051533 48 214 3.0 5.0 0.00 0.20 0.20 62 1010.8
20260831050032 48 177 2.0 5.0 0.00 0.20 0.20 63 1010.5
20260831044532 48 177 4.0 6.0 0.00 0.20 0.20 64 1010.5
20260831043037 48 176 3.0 5.0 0.00 0.20 0.20 64 1010.4
20260831041527 50 175 5.0 7.0 0.00 0.20 0.20 57 1010.5
20260831040026 54 113 2.0 8.0 0.00 0.20 0.20 41 1010.3
20260831034525 52 108 4.0 7.0 0.00 0.21 0.20 47 1010.2
20260831033024 53 148 0.0 5.0 0.00 0.21 0.20 49 1010.0
20260831031530 54 148 4.0 7.0 0.00 0.21 0.20 44 1009.9
20260831030022 52 146 4.0 7.0 0.00 0.21 0.20 51 1009.8
20260831024524 51 271 2.0 9.0 0.00 0.21 0.20 60 1009.6
20260831023018 53 203 5.0 7.0 0.00 0.21 0.20 56 1009.0
20260831021517 54 206 5.0 7.0 0.00 0.21 0.20 56 1008.8
20260831020017 56 207 5.0 6.0 0.00 0.21 0.20 50 1008.6
20260831014517 59 207 4.0 6.0 0.00 0.21 0.20 46 1008.5
20260831013034 62 211 3.0 6.0 0.00 0.21 0.20 39 1008.6
20260831011519 65 225 3.0 6.0 0.00 0.21 0.20 38 1008.6
20260831010018 67 250 3.0 9.0 0.00 0.21 0.20 28 1008.6
20260831004515 68 258 3.0 11.0 0.00 0.21 0.20 27 1008.5
20260831003021 68 268 7.0 13.0 0.00 0.21 0.20 29 1008.6
20260831001521 68 239 5.0 15.0 0.00 0.21 0.20 27 1008.5
20260831000012 69 252 3.0 15.0 0.00 0.21 0.20 27 1008.4
20260830234511 69 246 8.0 14.0 0.00 0.21 0.20 28 1008.3
20260830233010 69 172 6.0 17.0 0.00 0.21 0.20 27 1008.3
20260830231626 70 290 8.0 14.0 0.00 0.21 0.20 30 1008.3
20260830230009 70 248 9.0 14.0 0.00 0.21 0.20 32 1008.2
20260830224514 69 243 9.0 15.0 0.00 0.21 0.20 32 1008.2
20260830223008 69 289 10.0 19.0 0.00 0.21 0.20 32 1008.4
20260830221515 69 267 7.0 14.0 0.00 0.21 0.20 31 1008.5
20260830220006 70 257 13.0 18.0 0.00 0.21 0.20 32 1008.6
20260830214509 69 267 6.0 14.0 0.00 0.21 0.20 34 1008.6
20260830213001 69 286 6.0 14.0 0.00 0.21 0.20 34 1008.7
20260830211501 69 250 12.0 19.0 0.00 0.21 0.20 34 1008.7